Tracking 18844 objects as of 21-Nov-2017
HD Live streaming from Space Station
objects crossing your sky now

THORAD AGENA D DEB

Track THORAD AGENA D DEB now!
10-day predictions


NORAD ID: 4768
Int'l Code: 1970-025DN
Perigee: 985.6 km
Apogee: 1,030.2 km
Inclination: 100.2 °
Period: 105.1 minutes
Semi major axis: 7378 km
RCS: 0.064 m2 (small)
Launch date: April 8, 1970
Source: United States (US)
Launch site: AIR FORCE WESTERN TEST RANGE (AFWTR)

Note: This is SATELLITE DEBRIS
aabbcc
Your satellite tracking list
Your tracking list is empty




NASA's NSSDC Master Catalog

Two Line Element Set (TLE):
1  4768U 70025DN  17324.53130034 +.00000044 +00000-0 +10646-3 0  9993
2  4768 100.2076 149.5810 0030195 017.4155 048.4268 13.69660152369067
Source of the keplerian elements: AFSPC